Year,Month,Day,Hour,Minute,Value (Times are PST for insolation in W/m^2)
2021,09,09,00,00,0.00
2021,09,09,00,01,0.00
2021,09,09,00,02,0.00
2021,09,09,00,03,0.00
2021,09,09,00,04,0.00
2021,09,09,00,05,0.00
2021,09,09,00,06,0.00
2021,09,09,00,07,0.00
2021,09,09,00,08,0.00
2021,09,09,00,09,0.00
2021,09,09,00,10,0.00
2021,09,09,00,11,0.00
2021,09,09,00,12,0.00
2021,09,09,00,13,0.00
2021,09,09,00,14,0.00
2021,09,09,00,15,0.00
2021,09,09,00,16,0.00
2021,09,09,00,17,0.00
2021,09,09,00,18,0.00
2021,09,09,00,19,0.00
2021,09,09,00,20,0.00
2021,09,09,00,21,0.00
2021,09,09,00,22,0.00
2021,09,09,00,23,0.00
2021,09,09,00,24,0.00
2021,09,09,00,25,0.00
2021,09,09,00,26,0.00
2021,09,09,00,27,0.00
2021,09,09,00,28,0.00
2021,09,09,00,29,0.00
2021,09,09,00,30,0.00
2021,09,09,00,31,0.00
2021,09,09,00,32,0.00
2021,09,09,00,33,0.00
2021,09,09,00,34,0.00
2021,09,09,00,35,0.00
2021,09,09,00,36,0.00
2021,09,09,00,37,0.00
2021,09,09,00,38,0.00
2021,09,09,00,39,0.00
2021,09,09,00,40,0.00
2021,09,09,00,41,0.00
2021,09,09,00,42,0.00
2021,09,09,00,43,0.00
2021,09,09,00,44,0.00
2021,09,09,00,45,0.00
2021,09,09,00,46,0.00
2021,09,09,00,47,0.00
2021,09,09,00,48,0.00
2021,09,09,00,49,0.00
2021,09,09,00,50,0.00
2021,09,09,00,51,0.00
2021,09,09,00,52,0.00
2021,09,09,00,53,0.00
2021,09,09,00,54,0.00
2021,09,09,00,55,0.00
2021,09,09,00,56,0.00
2021,09,09,00,57,0.00
2021,09,09,00,58,0.00
2021,09,09,00,59,0.00
2021,09,09,01,00,0.00
2021,09,09,01,01,0.00
2021,09,09,01,02,0.00
2021,09,09,01,03,0.00
2021,09,09,01,04,0.00
2021,09,09,01,05,0.00
2021,09,09,01,06,0.00
2021,09,09,01,07,0.00
2021,09,09,01,08,0.00
2021,09,09,01,09,0.00
2021,09,09,01,10,0.00
2021,09,09,01,11,0.00
2021,09,09,01,12,0.00
2021,09,09,01,13,0.00
2021,09,09,01,14,0.00
2021,09,09,01,15,0.00
2021,09,09,01,16,0.00
2021,09,09,01,17,0.00
2021,09,09,01,18,0.00
2021,09,09,01,19,0.00
2021,09,09,01,20,0.00
2021,09,09,01,21,0.00
2021,09,09,01,22,0.00
2021,09,09,01,23,0.00
2021,09,09,01,24,0.00
2021,09,09,01,25,0.00
2021,09,09,01,26,0.00
2021,09,09,01,27,0.00
2021,09,09,01,28,0.00
2021,09,09,01,29,0.00
2021,09,09,01,30,0.00
2021,09,09,01,31,0.00
2021,09,09,01,32,0.00
2021,09,09,01,33,0.00
2021,09,09,01,34,0.00
2021,09,09,01,35,0.00
2021,09,09,01,36,0.00
2021,09,09,01,37,0.00
2021,09,09,01,38,0.00
2021,09,09,01,39,0.00
2021,09,09,01,40,0.00
2021,09,09,01,41,0.00
2021,09,09,01,42,0.00
2021,09,09,01,43,0.00
2021,09,09,01,44,0.00
2021,09,09,01,45,0.00
2021,09,09,01,46,0.00
2021,09,09,01,47,0.00
2021,09,09,01,48,0.00
2021,09,09,01,49,0.00
2021,09,09,01,50,0.00
2021,09,09,01,51,0.00
2021,09,09,01,52,0.00
2021,09,09,01,53,0.00
2021,09,09,01,54,0.00
2021,09,09,01,55,0.00
2021,09,09,01,56,0.00
2021,09,09,01,57,0.00
2021,09,09,01,58,0.00
2021,09,09,01,59,0.00
2021,09,09,02,00,0.00
2021,09,09,02,01,0.00
2021,09,09,02,02,0.00
2021,09,09,02,03,0.00
2021,09,09,02,04,0.00
2021,09,09,02,05,0.00
2021,09,09,02,06,0.00
2021,09,09,02,07,0.00
2021,09,09,02,08,0.00
2021,09,09,02,09,0.00
2021,09,09,02,10,0.00
2021,09,09,02,11,0.00
2021,09,09,02,12,0.00
2021,09,09,02,13,0.00
2021,09,09,02,14,0.00
2021,09,09,02,15,0.00
2021,09,09,02,16,0.00
2021,09,09,02,17,0.00
2021,09,09,02,18,0.00
2021,09,09,02,19,0.00
2021,09,09,02,20,0.00
2021,09,09,02,21,0.00
2021,09,09,02,22,0.00
2021,09,09,02,23,0.00
2021,09,09,02,24,0.00
2021,09,09,02,25,0.00
2021,09,09,02,26,0.00
2021,09,09,02,27,0.00
2021,09,09,02,28,0.00
2021,09,09,02,29,0.00
2021,09,09,02,30,0.00
2021,09,09,02,31,0.00
2021,09,09,02,32,0.00
2021,09,09,02,33,0.00
2021,09,09,02,34,0.00
2021,09,09,02,35,0.00
2021,09,09,02,36,0.00
2021,09,09,02,37,0.00
2021,09,09,02,38,0.00
2021,09,09,02,39,0.00
2021,09,09,02,40,0.00
2021,09,09,02,41,0.00
2021,09,09,02,42,0.00
2021,09,09,02,43,0.00
2021,09,09,02,44,0.00
2021,09,09,02,45,0.00
2021,09,09,02,46,0.00
2021,09,09,02,47,0.00
2021,09,09,02,48,0.00
2021,09,09,02,49,0.00
2021,09,09,02,50,0.00
2021,09,09,02,51,0.00
2021,09,09,02,52,0.00
2021,09,09,02,53,0.00
2021,09,09,02,54,0.00
2021,09,09,02,55,0.00
2021,09,09,02,56,0.00
2021,09,09,02,57,0.00
2021,09,09,02,58,0.00
2021,09,09,02,59,0.00
2021,09,09,03,00,0.00
2021,09,09,03,01,0.00
2021,09,09,03,02,0.00
2021,09,09,03,03,0.00
2021,09,09,03,04,0.00
2021,09,09,03,05,0.00
2021,09,09,03,06,0.00
2021,09,09,03,07,0.00
2021,09,09,03,08,0.00
2021,09,09,03,09,0.00
2021,09,09,03,10,0.00
2021,09,09,03,11,0.00
2021,09,09,03,12,0.00
2021,09,09,03,13,0.00
2021,09,09,03,14,0.00
2021,09,09,03,15,0.00
2021,09,09,03,16,0.00
2021,09,09,03,17,0.00
2021,09,09,03,18,0.00
2021,09,09,03,19,0.00
2021,09,09,03,20,0.00
2021,09,09,03,21,0.00
2021,09,09,03,22,0.00
2021,09,09,03,23,0.00
2021,09,09,03,24,0.00
2021,09,09,03,25,0.00
2021,09,09,03,26,0.00
2021,09,09,03,27,0.00
2021,09,09,03,28,0.00
2021,09,09,03,29,0.00
2021,09,09,03,30,0.00
2021,09,09,03,31,0.00
2021,09,09,03,32,0.00
2021,09,09,03,33,0.00
2021,09,09,03,34,0.00
2021,09,09,03,35,0.00
2021,09,09,03,36,0.00
2021,09,09,03,37,0.00
2021,09,09,03,38,0.00
2021,09,09,03,39,0.00
2021,09,09,03,40,0.00
2021,09,09,03,41,0.00
2021,09,09,03,42,0.00
2021,09,09,03,43,0.00
2021,09,09,03,44,0.00
2021,09,09,03,45,0.00
2021,09,09,03,46,0.00
2021,09,09,03,47,0.00
2021,09,09,03,48,0.00
2021,09,09,03,49,0.00
2021,09,09,03,50,0.00
2021,09,09,03,51,0.00
2021,09,09,03,52,0.00
2021,09,09,03,53,0.00
2021,09,09,03,54,0.00
2021,09,09,03,55,0.00
2021,09,09,03,56,0.00
2021,09,09,03,57,0.00
2021,09,09,03,58,0.00
2021,09,09,03,59,0.00
2021,09,09,04,00,0.00
2021,09,09,04,01,0.00
2021,09,09,04,02,0.00
2021,09,09,04,03,0.00
2021,09,09,04,04,0.00
2021,09,09,04,05,0.00
2021,09,09,04,06,0.00
2021,09,09,04,07,0.00
2021,09,09,04,08,0.00
2021,09,09,04,09,0.00
2021,09,09,04,10,0.00
2021,09,09,04,11,0.00
2021,09,09,04,12,0.00
2021,09,09,04,13,0.00
2021,09,09,04,14,0.00
2021,09,09,04,15,0.00
2021,09,09,04,16,0.00
2021,09,09,04,17,0.00
2021,09,09,04,18,0.00
2021,09,09,04,19,0.00
2021,09,09,04,20,0.00
2021,09,09,04,21,0.00
2021,09,09,04,22,0.00
2021,09,09,04,23,0.00
2021,09,09,04,24,0.00
2021,09,09,04,25,0.00
2021,09,09,04,26,0.00
2021,09,09,04,27,0.00
2021,09,09,04,28,0.00
2021,09,09,04,29,0.00
2021,09,09,04,30,0.00
2021,09,09,04,31,0.00
2021,09,09,04,32,0.00
2021,09,09,04,33,0.00
2021,09,09,04,34,0.00
2021,09,09,04,35,0.00
2021,09,09,04,36,0.00
2021,09,09,04,37,0.00
2021,09,09,04,38,0.00
2021,09,09,04,39,0.00
2021,09,09,04,40,0.00
2021,09,09,04,41,0.00
2021,09,09,04,42,0.00
2021,09,09,04,43,0.00
2021,09,09,04,44,0.00
2021,09,09,04,45,0.00
2021,09,09,04,46,0.00
2021,09,09,04,47,0.00
2021,09,09,04,48,0.00
2021,09,09,04,49,0.00
2021,09,09,04,50,0.00
2021,09,09,04,51,0.00
2021,09,09,04,52,0.00
2021,09,09,04,53,0.00
2021,09,09,04,54,0.00
2021,09,09,04,55,0.00
2021,09,09,04,56,0.00
2021,09,09,04,57,0.00
2021,09,09,04,58,0.00
2021,09,09,04,59,0.00
2021,09,09,05,00,0.00
2021,09,09,05,01,0.00
2021,09,09,05,02,0.00
2021,09,09,05,03,0.00
2021,09,09,05,04,0.00
2021,09,09,05,05,0.00
2021,09,09,05,06,0.00
2021,09,09,05,07,0.00
2021,09,09,05,08,0.00
2021,09,09,05,09,0.00
2021,09,09,05,10,0.00
2021,09,09,05,11,0.00
2021,09,09,05,12,0.00
2021,09,09,05,13,0.00
2021,09,09,05,14,0.00
2021,09,09,05,15,0.00
2021,09,09,05,16,0.00
2021,09,09,05,17,0.00
2021,09,09,05,18,0.00
2021,09,09,05,19,0.00
2021,09,09,05,20,0.00
2021,09,09,05,21,0.00
2021,09,09,05,22,0.00
2021,09,09,05,23,0.00
2021,09,09,05,24,0.00
2021,09,09,05,25,0.00
2021,09,09,05,26,0.00
2021,09,09,05,27,0.00
2021,09,09,05,28,0.00
2021,09,09,05,29,0.00
2021,09,09,05,30,0.00
2021,09,09,05,31,0.00
2021,09,09,05,32,0.00
2021,09,09,05,33,0.00
2021,09,09,05,34,0.00
2021,09,09,05,35,0.00
2021,09,09,05,36,0.00
2021,09,09,05,37,0.00
2021,09,09,05,38,0.00
2021,09,09,05,39,0.00
2021,09,09,05,40,0.00
2021,09,09,05,41,0.00
2021,09,09,05,42,0.00
2021,09,09,05,43,0.00
2021,09,09,05,44,0.00
2021,09,09,05,45,0.00
2021,09,09,05,46,0.00
2021,09,09,05,47,0.00
2021,09,09,05,48,0.00
2021,09,09,05,49,0.00
2021,09,09,05,50,0.00
2021,09,09,05,51,0.00
2021,09,09,05,52,0.00
2021,09,09,05,53,0.00
2021,09,09,05,54,0.00
2021,09,09,05,55,0.00
2021,09,09,05,56,0.00
2021,09,09,05,57,0.00
2021,09,09,05,58,0.00
2021,09,09,05,59,0.00
2021,09,09,06,00,0.00
2021,09,09,06,01,0.00
2021,09,09,06,02,0.00
2021,09,09,06,03,0.00
2021,09,09,06,04,0.00
2021,09,09,06,05,0.00
2021,09,09,06,06,0.00
2021,09,09,06,07,0.00
2021,09,09,06,08,0.00
2021,09,09,06,09,0.00
2021,09,09,06,10,0.00
2021,09,09,06,11,0.00
2021,09,09,06,12,0.00
2021,09,09,06,13,0.00
2021,09,09,06,14,0.00
2021,09,09,06,15,0.00
2021,09,09,06,16,0.00
2021,09,09,06,17,0.00
2021,09,09,06,18,0.00
2021,09,09,06,19,0.00
2021,09,09,06,20,0.00
2021,09,09,06,21,0.00
2021,09,09,06,22,0.00
2021,09,09,06,23,0.00
2021,09,09,06,24,0.00
2021,09,09,06,25,0.00
2021,09,09,06,26,0.00
2021,09,09,06,27,0.00
2021,09,09,06,28,0.00
2021,09,09,06,29,0.00
2021,09,09,06,30,0.00
2021,09,09,06,31,0.00
2021,09,09,06,32,0.00
2021,09,09,06,33,0.00
2021,09,09,06,34,0.00
2021,09,09,06,35,0.00
2021,09,09,06,36,0.00
2021,09,09,06,37,0.00
2021,09,09,06,38,0.00
2021,09,09,06,39,0.00
2021,09,09,06,40,3.60
2021,09,09,06,41,5.00
2021,09,09,06,42,5.00
2021,09,09,06,43,5.00
2021,09,09,06,44,5.00
2021,09,09,06,45,5.90
2021,09,09,06,46,7.00
2021,09,09,06,47,7.00
2021,09,09,06,48,7.00
2021,09,09,06,49,8.60
2021,09,09,06,50,9.00
2021,09,09,06,51,11.00
2021,09,09,06,52,11.00
2021,09,09,06,53,11.00
2021,09,09,06,54,11.40
2021,09,09,06,55,12.00
2021,09,09,06,56,12.00
2021,09,09,06,57,13.40
2021,09,09,06,58,14.00
2021,09,09,06,59,14.10
2021,09,09,07,00,16.00
2021,09,09,07,01,16.50
2021,09,09,07,02,18.00
2021,09,09,07,03,18.00
2021,09,09,07,04,18.50
2021,09,09,07,05,20.40
2021,09,09,07,06,22.50
2021,09,09,07,07,24.70
2021,09,09,07,08,26.00
2021,09,09,07,09,26.40
2021,09,09,07,10,28.60
2021,09,09,07,11,30.00
2021,09,09,07,12,31.00
2021,09,09,07,13,32.00
2021,09,09,07,14,32.70
2021,09,09,07,15,33.00
2021,09,09,07,16,33.00
2021,09,09,07,17,33.00
2021,09,09,07,18,33.00
2021,09,09,07,19,33.00
2021,09,09,07,20,33.90
2021,09,09,07,21,36.00
2021,09,09,07,22,38.30
2021,09,09,07,23,39.80
2021,09,09,07,24,41.70
2021,09,09,07,25,42.40
2021,09,09,07,26,46.20
2021,09,09,07,27,47.00
2021,09,09,07,28,48.50
2021,09,09,07,29,52.00
2021,09,09,07,30,54.80
2021,09,09,07,31,57.30
2021,09,09,07,32,59.50
2021,09,09,07,33,62.70
2021,09,09,07,34,64.00
2021,09,09,07,35,57.50
2021,09,09,07,36,61.10
2021,09,09,07,37,79.10
2021,09,09,07,38,88.40
2021,09,09,07,39,95.30
2021,09,09,07,40,102.20
2021,09,09,07,41,106.50
2021,09,09,07,42,107.90
2021,09,09,07,43,126.30
2021,09,09,07,44,135.40
2021,09,09,07,45,141.30
2021,09,09,07,46,147.40
2021,09,09,07,47,151.20
2021,09,09,07,48,155.00
2021,09,09,07,49,159.00
2021,09,09,07,50,161.70
2021,09,09,07,51,162.70
2021,09,09,07,52,169.60
2021,09,09,07,53,172.70
2021,09,09,07,54,171.20
2021,09,09,07,55,152.70
2021,09,09,07,56,137.00
2021,09,09,07,57,137.00
2021,09,09,07,58,179.00
2021,09,09,07,59,189.60
2021,09,09,08,00,190.80
2021,09,09,08,01,196.20
2021,09,09,08,02,202.10
2021,09,09,08,03,206.00
2021,09,09,08,04,211.70
2021,09,09,08,05,220.60
2021,09,09,08,06,219.20
2021,09,09,08,07,237.70
2021,09,09,08,08,250.00
2021,09,09,08,09,250.00
2021,09,09,08,10,250.00
2021,09,09,08,11,260.70
2021,09,09,08,12,278.50
2021,09,09,08,13,279.00
2021,09,09,08,14,283.10
2021,09,09,08,15,239.60
2021,09,09,08,16,201.70
2021,09,09,08,17,193.10
2021,09,09,08,18,183.10
2021,09,09,08,19,191.50
2021,09,09,08,20,201.90
2021,09,09,08,21,202.70
2021,09,09,08,22,232.10
2021,09,09,08,23,262.10
2021,09,09,08,24,289.60
2021,09,09,08,25,306.20
2021,09,09,08,26,266.00
2021,09,09,08,27,271.70
2021,09,09,08,28,271.00
2021,09,09,08,29,279.10
2021,09,09,08,30,249.10
2021,09,09,08,31,213.00
2021,09,09,08,32,220.20
2021,09,09,08,33,223.00
2021,09,09,08,34,178.70
2021,09,09,08,35,191.70
2021,09,09,08,36,227.80
2021,09,09,08,37,246.00
2021,09,09,08,38,252.00
2021,09,09,08,39,267.10
2021,09,09,08,40,291.90
2021,09,09,08,41,338.10
2021,09,09,08,42,329.10
2021,09,09,08,43,242.00
2021,09,09,08,44,236.00
2021,09,09,08,45,236.00
2021,09,09,08,46,262.10
2021,09,09,08,47,317.40
2021,09,09,08,48,323.30
2021,09,09,08,49,325.90
2021,09,09,08,50,397.20
2021,09,09,08,51,402.50
2021,09,09,08,52,392.70
2021,09,09,08,53,386.40
2021,09,09,08,54,385.00
2021,09,09,08,55,362.60
2021,09,09,08,56,338.00
2021,09,09,08,57,338.00
2021,09,09,08,58,214.00
2021,09,09,08,59,178.50
2021,09,09,09,00,201.70
2021,09,09,09,01,179.00
2021,09,09,09,02,170.30
2021,09,09,09,03,154.30
2021,09,09,09,04,148.10
2021,09,09,09,05,158.70
2021,09,09,09,06,170.40
2021,09,09,09,07,167.50
2021,09,09,09,08,194.40
2021,09,09,09,09,229.50
2021,09,09,09,10,314.30
2021,09,09,09,11,317.80
2021,09,09,09,12,283.20
2021,09,09,09,13,269.00
2021,09,09,09,14,251.70
2021,09,09,09,15,227.80
2021,09,09,09,16,202.30
2021,09,09,09,17,216.90
2021,09,09,09,18,225.00
2021,09,09,09,19,219.90
2021,09,09,09,20,198.60
2021,09,09,09,21,198.00
2021,09,09,09,22,213.00
2021,09,09,09,23,215.10
2021,09,09,09,24,226.50
2021,09,09,09,25,197.40
2021,09,09,09,26,215.70
2021,09,09,09,27,236.90
2021,09,09,09,28,214.00
2021,09,09,09,29,226.10
2021,09,09,09,30,249.90
2021,09,09,09,31,258.00
2021,09,09,09,32,298.50
2021,09,09,09,33,274.60
2021,09,09,09,34,275.70
2021,09,09,09,35,286.60
2021,09,09,09,36,329.00
2021,09,09,09,37,307.60
2021,09,09,09,38,259.00
2021,09,09,09,39,240.20
2021,09,09,09,40,241.00
2021,09,09,09,41,241.00
2021,09,09,09,42,241.00
2021,09,09,09,43,162.20
2021,09,09,09,44,153.60
2021,09,09,09,45,145.30
2021,09,09,09,46,140.40
2021,09,09,09,47,143.00
2021,09,09,09,48,154.40
2021,09,09,09,49,170.20
2021,09,09,09,50,183.40
2021,09,09,09,51,217.40
2021,09,09,09,52,201.10
2021,09,09,09,53,207.50
2021,09,09,09,54,213.20
2021,09,09,09,55,221.30
2021,09,09,09,56,230.10
2021,09,09,09,57,243.10
2021,09,09,09,58,264.80
2021,09,09,09,59,271.00
2021,09,09,10,00,270.90
2021,09,09,10,01,202.00
2021,09,09,10,02,184.40
2021,09,09,10,03,207.10
2021,09,09,10,04,276.30
2021,09,09,10,05,345.20
2021,09,09,10,06,401.10
2021,09,09,10,07,415.00
2021,09,09,10,08,415.00
2021,09,09,10,09,395.40
2021,09,09,10,10,489.00
2021,09,09,10,11,529.00
2021,09,09,10,12,522.20
2021,09,09,10,13,522.90
2021,09,09,10,14,528.50
2021,09,09,10,15,533.00
2021,09,09,10,16,448.10
2021,09,09,10,17,439.70
2021,09,09,10,18,494.60
2021,09,09,10,19,495.00
2021,09,09,10,20,520.00
2021,09,09,10,21,519.50
2021,09,09,10,22,519.00
2021,09,09,10,23,519.00
2021,09,09,10,24,535.20
2021,09,09,10,25,540.00
2021,09,09,10,26,540.00
2021,09,09,10,27,540.00
2021,09,09,10,28,547.00
2021,09,09,10,29,555.70
2021,09,09,10,30,548.00
2021,09,09,10,31,479.80
2021,09,09,10,32,509.50
2021,09,09,10,33,538.00
2021,09,09,10,34,538.00
2021,09,09,10,35,538.00
2021,09,09,10,36,538.00
2021,09,09,10,37,430.20
2021,09,09,10,38,214.30
2021,09,09,10,39,197.00
2021,09,09,10,40,502.20
2021,09,09,10,41,624.60
2021,09,09,10,42,605.60
2021,09,09,10,43,563.00
2021,09,09,10,44,569.30
2021,09,09,10,45,584.90
2021,09,09,10,46,565.20
2021,09,09,10,47,584.50
2021,09,09,10,48,592.00
2021,09,09,10,49,520.60
2021,09,09,10,50,492.00
2021,09,09,10,51,541.80
2021,09,09,10,52,508.70
2021,09,09,10,53,496.00
2021,09,09,10,54,496.00
2021,09,09,10,55,557.00
2021,09,09,10,56,592.10
2021,09,09,10,57,508.70
2021,09,09,10,58,476.00
2021,09,09,10,59,596.00
2021,09,09,11,00,615.90
2021,09,09,11,01,613.80
2021,09,09,11,02,573.00
2021,09,09,11,03,598.10
2021,09,09,11,04,605.80
2021,09,09,11,05,599.10
2021,09,09,11,06,622.00
2021,09,09,11,07,614.30
2021,09,09,11,08,612.00
2021,09,09,11,09,611.40
2021,09,09,11,10,608.80
2021,09,09,11,11,612.00
2021,09,09,11,12,612.00
2021,09,09,11,13,612.00
2021,09,09,11,14,609.40
2021,09,09,11,15,553.10
2021,09,09,11,16,536.00
2021,09,09,11,17,513.20
2021,09,09,11,18,555.60
2021,09,09,11,19,559.00
2021,09,09,11,20,488.70
2021,09,09,11,21,366.00
2021,09,09,11,22,397.80
2021,09,09,11,23,362.50
2021,09,09,11,24,339.00
2021,09,09,11,25,547.20
2021,09,09,11,26,606.70
2021,09,09,11,27,604.70
2021,09,09,11,28,595.60
2021,09,09,11,29,587.00
2021,09,09,11,30,587.00
2021,09,09,11,31,576.80
2021,09,09,11,32,585.70
2021,09,09,11,33,546.70
2021,09,09,11,34,536.00
2021,09,09,11,35,536.00
2021,09,09,11,36,533.60
2021,09,09,11,37,513.80
2021,09,09,11,38,502.50
2021,09,09,11,39,513.00
2021,09,09,11,40,548.80
2021,09,09,11,41,589.60
2021,09,09,11,42,604.60
2021,09,09,11,43,613.00
2021,09,09,11,44,613.00
2021,09,09,11,45,613.00
2021,09,09,11,46,613.00
2021,09,09,11,47,599.20
2021,09,09,11,48,584.00
2021,09,09,11,49,606.50
2021,09,09,11,50,613.80
2021,09,09,11,51,582.10
2021,09,09,11,52,577.00
2021,09,09,11,53,577.00
2021,09,09,11,54,577.00
2021,09,09,11,55,577.00
2021,09,09,11,56,589.00
2021,09,09,11,57,599.00
2021,09,09,11,58,599.00
2021,09,09,11,59,533.00
2021,09,09,12,00,471.60
2021,09,09,12,01,492.30
2021,09,09,12,02,607.50
2021,09,09,12,03,631.30
2021,09,09,12,04,656.70
2021,09,09,12,05,654.30
2021,09,09,12,06,647.00
2021,09,09,12,07,680.60
2021,09,09,12,08,659.00
2021,09,09,12,09,681.20
2021,09,09,12,10,638.60
2021,09,09,12,11,575.90
2021,09,09,12,12,547.90
2021,09,09,12,13,564.00
2021,09,09,12,14,564.00
2021,09,09,12,15,564.00
2021,09,09,12,16,564.00
2021,09,09,12,17,574.00
2021,09,09,12,18,768.00
2021,09,09,12,19,724.00
2021,09,09,12,20,667.70
2021,09,09,12,21,570.20
2021,09,09,12,22,582.30
2021,09,09,12,23,548.90
2021,09,09,12,24,531.00
2021,09,09,12,25,531.00
2021,09,09,12,26,551.00
2021,09,09,12,27,524.10
2021,09,09,12,28,359.00
2021,09,09,12,29,387.80
2021,09,09,12,30,448.00
2021,09,09,12,31,464.00
2021,09,09,12,32,464.00
2021,09,09,12,33,344.90
2021,09,09,12,34,325.00
2021,09,09,12,35,325.00
2021,09,09,12,36,346.10
2021,09,09,12,37,422.00
2021,09,09,12,38,422.00
2021,09,09,12,39,422.00
2021,09,09,12,40,422.00
2021,09,09,12,41,422.00
2021,09,09,12,42,427.70
2021,09,09,12,43,453.70
2021,09,09,12,44,455.00
2021,09,09,12,45,474.80
2021,09,09,12,46,538.00
2021,09,09,12,47,571.60
2021,09,09,12,48,612.00
2021,09,09,12,49,584.00
2021,09,09,12,50,577.80
2021,09,09,12,51,556.00
2021,09,09,12,52,520.00
2021,09,09,12,53,552.20
2021,09,09,12,54,682.80
2021,09,09,12,55,687.00
2021,09,09,12,56,726.00
2021,09,09,12,57,674.00
2021,09,09,12,58,622.40
2021,09,09,12,59,638.00
2021,09,09,13,00,597.90
2021,09,09,13,01,622.00
2021,09,09,13,02,601.50
2021,09,09,13,03,616.00
2021,09,09,13,04,593.80
2021,09,09,13,05,553.60
2021,09,09,13,06,601.70
2021,09,09,13,07,610.00
2021,09,09,13,08,530.70
2021,09,09,13,09,559.00
2021,09,09,13,10,640.00
2021,09,09,13,11,614.30
2021,09,09,13,12,574.00
2021,09,09,13,13,639.20
2021,09,09,13,14,620.00
2021,09,09,13,15,592.30
2021,09,09,13,16,596.00
2021,09,09,13,17,596.00
2021,09,09,13,18,597.40
2021,09,09,13,19,606.00
2021,09,09,13,20,625.30
2021,09,09,13,21,672.80
2021,09,09,13,22,665.40
2021,09,09,13,23,590.80
2021,09,09,13,24,585.20
2021,09,09,13,25,635.30
2021,09,09,13,26,673.30
2021,09,09,13,27,699.40
2021,09,09,13,28,654.00
2021,09,09,13,29,654.00
2021,09,09,13,30,654.00
2021,09,09,13,31,637.60
2021,09,09,13,32,606.70
2021,09,09,13,33,622.00
2021,09,09,13,34,597.20
2021,09,09,13,35,575.00
2021,09,09,13,36,575.00
2021,09,09,13,37,561.90
2021,09,09,13,38,559.40
2021,09,09,13,39,590.00
2021,09,09,13,40,523.10
2021,09,09,13,41,539.30
2021,09,09,13,42,553.00
2021,09,09,13,43,511.90
2021,09,09,13,44,590.00
2021,09,09,13,45,614.70
2021,09,09,13,46,540.00
2021,09,09,13,47,540.00
2021,09,09,13,48,607.70
2021,09,09,13,49,657.40
2021,09,09,13,50,629.30
2021,09,09,13,51,614.30
2021,09,09,13,52,615.90
2021,09,09,13,53,653.90
2021,09,09,13,54,645.00
2021,09,09,13,55,639.30
2021,09,09,13,56,631.00
2021,09,09,13,57,584.00
2021,09,09,13,58,604.90
2021,09,09,13,59,635.70
2021,09,09,14,00,568.60
2021,09,09,14,01,650.00
2021,09,09,14,02,641.20
2021,09,09,14,03,623.00
2021,09,09,14,04,645.20
2021,09,09,14,05,618.00
2021,09,09,14,06,595.80
2021,09,09,14,07,637.00
2021,09,09,14,08,657.00
2021,09,09,14,09,656.80
2021,09,09,14,10,652.00
2021,09,09,14,11,651.20
2021,09,09,14,12,648.30
2021,09,09,14,13,647.00
2021,09,09,14,14,644.60
2021,09,09,14,15,643.00
2021,09,09,14,16,642.20
2021,09,09,14,17,616.30
2021,09,09,14,18,609.40
2021,09,09,14,19,623.90
2021,09,09,14,20,634.60
2021,09,09,14,21,629.80
2021,09,09,14,22,627.00
2021,09,09,14,23,620.70
2021,09,09,14,24,615.60
2021,09,09,14,25,615.00
2021,09,09,14,26,606.90
2021,09,09,14,27,593.00
2021,09,09,14,28,612.70
2021,09,09,14,29,599.00
2021,09,09,14,30,599.00
2021,09,09,14,31,598.50
2021,09,09,14,32,598.00
2021,09,09,14,33,598.00
2021,09,09,14,34,598.00
2021,09,09,14,35,541.50
2021,09,09,14,36,584.80
2021,09,09,14,37,575.40
2021,09,09,14,38,568.80
2021,09,09,14,39,591.50
2021,09,09,14,40,587.00
2021,09,09,14,41,584.70
2021,09,09,14,42,585.00
2021,09,09,14,43,580.50
2021,09,09,14,44,572.70
2021,09,09,14,45,575.50
2021,09,09,14,46,594.60
2021,09,09,14,47,592.40
2021,09,09,14,48,587.00
2021,09,09,14,49,595.70
2021,09,09,14,50,598.70
2021,09,09,14,51,594.60
2021,09,09,14,52,591.50
2021,09,09,14,53,577.50
2021,09,09,14,54,563.00
2021,09,09,14,55,565.30
2021,09,09,14,56,570.00
2021,09,09,14,57,557.50
2021,09,09,14,58,554.00
2021,09,09,14,59,567.40
2021,09,09,15,00,570.00
2021,09,09,15,01,570.00
2021,09,09,15,02,571.00
2021,09,09,15,03,579.70
2021,09,09,15,04,559.80
2021,09,09,15,05,532.30
2021,09,09,15,06,539.70
2021,09,09,15,07,532.30
2021,09,09,15,08,527.00
2021,09,09,15,09,547.30
2021,09,09,15,10,578.00
2021,09,09,15,11,586.30
2021,09,09,15,12,584.40
2021,09,09,15,13,589.40
2021,09,09,15,14,596.00
2021,09,09,15,15,414.00
2021,09,09,15,16,302.00
2021,09,09,15,17,518.00
2021,09,09,15,18,555.00
2021,09,09,15,19,554.10
2021,09,09,15,20,549.50
2021,09,09,15,21,548.00
2021,09,09,15,22,548.00
2021,09,09,15,23,548.00
2021,09,09,15,24,547.30
2021,09,09,15,25,547.00
2021,09,09,15,26,547.00
2021,09,09,15,27,545.00
2021,09,09,15,28,545.00
2021,09,09,15,29,544.40
2021,09,09,15,30,546.40
2021,09,09,15,31,515.90
2021,09,09,15,32,492.90
2021,09,09,15,33,499.00
2021,09,09,15,34,499.00
2021,09,09,15,35,501.10
2021,09,09,15,36,541.80
2021,09,09,15,37,510.70
2021,09,09,15,38,434.20
2021,09,09,15,39,431.00
2021,09,09,15,40,431.00
2021,09,09,15,41,431.00
2021,09,09,15,42,431.00
2021,09,09,15,43,431.00
2021,09,09,15,44,402.00
2021,09,09,15,45,103.70
2021,09,09,15,46,132.00
2021,09,09,15,47,132.00
2021,09,09,15,48,245.80
2021,09,09,15,49,371.00
2021,09,09,15,50,371.00
2021,09,09,15,51,371.00
2021,09,09,15,52,383.70
2021,09,09,15,53,404.40
2021,09,09,15,54,521.10
2021,09,09,15,55,453.80
2021,09,09,15,56,371.10
2021,09,09,15,57,322.00
2021,09,09,15,58,432.20
2021,09,09,15,59,483.00
2021,09,09,16,00,168.40
2021,09,09,16,01,109.90
2021,09,09,16,02,122.70
2021,09,09,16,03,143.60
2021,09,09,16,04,165.00
2021,09,09,16,05,176.90
2021,09,09,16,06,179.70
2021,09,09,16,07,163.40
2021,09,09,16,08,151.50
2021,09,09,16,09,146.30
2021,09,09,16,10,154.40
2021,09,09,16,11,177.90
2021,09,09,16,12,185.70
2021,09,09,16,13,185.00
2021,09,09,16,14,185.00
2021,09,09,16,15,410.60
2021,09,09,16,16,567.40
2021,09,09,16,17,583.90
2021,09,09,16,18,569.00
2021,09,09,16,19,227.00
2021,09,09,16,20,227.00
2021,09,09,16,21,343.00
2021,09,09,16,22,575.00
2021,09,09,16,23,529.20
2021,09,09,16,24,494.00
2021,09,09,16,25,347.20
2021,09,09,16,26,304.00
2021,09,09,16,27,326.00
2021,09,09,16,28,522.30
2021,09,09,16,29,498.70
2021,09,09,16,30,439.20
2021,09,09,16,31,404.70
2021,09,09,16,32,393.90
2021,09,09,16,33,330.20
2021,09,09,16,34,308.00
2021,09,09,16,35,308.00
2021,09,09,16,36,308.00
2021,09,09,16,37,294.90
2021,09,09,16,38,253.00
2021,09,09,16,39,360.60
2021,09,09,16,40,504.00
2021,09,09,16,41,286.70
2021,09,09,16,42,185.40
2021,09,09,16,43,197.40
2021,09,09,16,44,208.50
2021,09,09,16,45,243.90
2021,09,09,16,46,392.00
2021,09,09,16,47,322.30
2021,09,09,16,48,181.10
2021,09,09,16,49,179.00
2021,09,09,16,50,179.00
2021,09,09,16,51,175.20
2021,09,09,16,52,171.30
2021,09,09,16,53,171.50
2021,09,09,16,54,172.70
2021,09,09,16,55,162.00
2021,09,09,16,56,161.10
2021,09,09,16,57,160.00
2021,09,09,16,58,157.30
2021,09,09,16,59,156.00
2021,09,09,17,00,156.00
2021,09,09,17,01,151.10
2021,09,09,17,02,147.00
2021,09,09,17,03,140.10
2021,09,09,17,04,137.00
2021,09,09,17,05,138.90
2021,09,09,17,06,142.60
2021,09,09,17,07,145.40
2021,09,09,17,08,146.00
2021,09,09,17,09,144.30
2021,09,09,17,10,140.50
2021,09,09,17,11,134.00
2021,09,09,17,12,132.80